SQ3VAS-10 Weather Reports


time (UTC)temp
C
wind
direction
speed
KPH
gust
KPH
rain 1hr
cm
rain 24hr
cm
rain mn
cm
humidity
%
barometer
mb
20260902060006 16 0.0 0.0 0.00 0.00 0.00 89 1019.7
20260902055034 15 0.0 0.0 0.00 0.00 0.00 90 1019.6
20260902054101 15 0.0 0.0 0.00 0.00 0.00 90 1019.7
20260902053129 15 0.0 0.0 0.00 0.00 0.00 90 1019.7
20260902052156 15 0.0 0.0 0.00 0.00 0.00 92 1019.6
20260902051223 15 0.0 0.0 0.00 0.00 0.00 91 1019.5
20260902050250 14 0.0 0.0 0.00 0.00 0.00 91 1019.5
20260902045317 14 0.0 0.0 0.00 0.00 0.00 91 1019.3
20260902044345 14 0.0 0.0 0.00 0.00 0.00 91 1019.3
20260902043413 14 0.0 0.0 0.00 0.00 0.00 91 1019.2
20260902042442 14 0.0 0.0 0.00 0.00 0.00 90 1019.2
20260902041510 14 0.0 0.0 0.00 0.00 0.00 91 1019.1
20260902040538 14 0.0 0.0 0.00 0.00 0.00 91 1019.0
20260902035606 14 0.0 0.0 0.00 0.00 0.00 92 1019.0
20260902034632 14 0.0 0.0 0.00 0.00 0.00 91 1019.0
20260902033700 14 0.0 0.0 0.00 0.00 0.00 91 1019.0
20260902032728 14 0.0 0.0 0.00 0.00 0.00 90 1018.9
20260902031756 14 0.0 0.0 0.00 0.00 0.00 91 1019.0
20260902030823 14 0.0 0.0 0.00 0.00 0.00 91 1019.0
20260902025850 14 0.0 0.0 0.00 0.00 0.00 91 1018.9
20260902024917 13 0.0 0.0 0.00 0.00 0.00 92 1019.0
20260902023945 14 0.0 0.0 0.00 0.00 0.00 86 1019.0
20260902023013 14 0.0 0.0 0.00 0.00 0.00 86 1019.1
20260902022041 14 0.0 0.0 0.00 0.00 0.00 84 1018.9
20260902021109 15 0.0 0.0 0.00 0.00 0.00 86 1018.8
20260902020137 15 0.0 0.0 0.00 0.00 0.00 85 1018.8
20260902015205 15 0.0 0.0 0.00 0.00 0.00 85 1018.7
20260902014233 15 0.0 0.0 0.00 0.00 0.00 85 1018.8
20260902013301 15 0.0 0.0 0.00 0.00 0.00 86 1018.7
20260902012329 15 0.0 0.0 0.00 0.00 0.00 85 1018.7
20260902011356 15 0.0 0.0 0.00 0.00 0.00 84 1018.6
20260902010424 16 0.0 0.0 0.00 0.00 0.00 84 1018.5
20260902005452 16 0.0 0.0 0.00 0.00 0.00 83 1018.5
20260902004520 16 0.0 0.0 0.00 0.00 0.00 83 1018.6
20260902003548 16 0.0 0.0 0.00 0.00 0.00 83 1018.6
20260902002615 16 0.0 0.0 0.00 0.00 0.00 82 1018.6
20260902001643 16 0.0 0.0 0.00 0.00 0.00 82 1018.6
20260902000712 16 0.0 0.0 0.00 0.00 0.00 82 1018.5
20260901235740 16 0.0 0.0 0.00 0.00 0.00 83 1018.6
20260901234807 17 0.0 0.0 0.00 0.00 0.00 84 1018.5
20260901233835 17 0.0 0.0 0.00 0.00 0.00 85 1018.4
20260901232903 17 0.0 0.0 0.00 0.00 0.00 84 1018.3
20260901231930 17 0.0 0.0 0.00 0.00 0.00 84 1018.4
20260901230957 17 0.0 0.0 0.00 0.00 0.00 84 1018.4
20260901230025 17 0.0 0.0 0.00 0.00 0.00 85 1018.4
20260901225052 16 0.0 0.0 0.00 0.00 0.00 87 1018.5
20260901224121 16 0.0 0.0 0.00 0.00 0.00 87 1018.5
20260901223147 16 0.0 0.0 0.00 0.00 0.00 87 1018.4
20260901222215 16 0.0 0.0 0.00 0.00 0.00 89 1018.4
20260901221242 16 0.0 0.0 0.00 0.00 0.00 88 1018.4
20260901220310 16 0.0 0.0 0.00 0.00 0.00 89 1018.4
20260901215338 16 0.0 0.0 0.00 0.00 0.00 88 1018.3
20260901214406 16 0.0 0.0 0.00 0.00 0.00 87 1018.2
20260901213434 16 0.0 0.0 0.00 0.00 0.00 87 1018.2
20260901212502 16 0.0 0.0 0.00 0.00 0.00 86 1018.2
20260901211529 17 0.0 0.0 0.00 0.00 0.00 87 1018.2
20260901210557 17 0.0 0.0 0.00 0.00 0.00 86 1018.2
20260901205625 17 0.0 0.0 0.00 0.00 0.00 86 1018.2
20260901204653 17 0.0 0.0 0.00 0.00 0.00 87 1018.1
20260901203720 17 0.0 0.0 0.00 0.00 0.00 88 1018.1
20260901202748 16 0.0 0.0 0.00 0.00 0.00 89 1018.3
20260901201816 17 0.0 0.0 0.00 0.00 0.00 88 1018.0
20260901200844 17 0.0 0.0 0.00 0.00 0.00 88 1018.0
20260901195912 17 0.0 0.0 0.00 0.00 0.00 87 1017.8
20260901194938 17 0.0 0.0 0.00 0.00 0.00 88 1017.9
20260901194006 17 0.0 0.0 0.00 0.00 0.00 88 1017.9
20260901193034 17 0.0 0.0 0.00 0.00 0.00 88 1017.9
20260901192102 17 0.0 0.0 0.00 0.00 0.00 87 1017.9
20260901191129 17 0.0 0.0 0.00 0.00 0.00 87 1017.8
20260901190157 17 0.0 0.0 0.00 0.00 0.00 86 1017.7
20260901185224 17 0.0 0.0 0.00 0.00 0.00 88 1017.7
20260901184252 17 0.0 0.0 0.00 0.00 0.00 87 1017.6
20260901183320 17 0.0 0.0 0.00 0.00 0.00 87 1017.6
20260901182348 17 0.0 0.0 0.00 0.00 0.00 88 1017.6
20260901181415 17 0.0 0.0 0.00 0.00 0.00 90 1017.5
20260901180444 17 0.0 0.0 0.00 0.00 0.00 91 1017.5
20260901175512 17 0.0 0.0 0.00 0.00 0.00 89 1017.4
20260901174542 18 0.0 0.0 0.00 0.00 0.00 85 1017.3
20260901173611 21 0.0 0.0 0.00 0.00 0.00 71 1017.1
20260901172639 22 0.0 0.0 0.00 0.00 0.00 62 1016.2
20260901171707 22 0.0 0.0 0.00 0.00 0.00 61 1016.3
20260901170735 22 0.0 0.0 0.00 0.00 0.00 61 1016.2
20260901165802 22 0.0 0.0 0.00 0.00 0.00 59 1016.2
20260901164830 22 0.0 0.0 0.00 0.00 0.00 59 1016.3
20260901163859 23 0.0 0.0 0.00 0.00 0.00 57 1016.2
20260901162926 23 0.0 0.0 0.00 0.00 0.00 54 1016.2
20260901161953 23 0.0 0.0 0.00 0.00 0.00 54 1016.1
20260901161020 23 0.0 0.0 0.00 0.00 0.00 54 1016.1
20260901160047 23 0.0 0.0 0.00 0.00 0.00 53 1016.0
20260901155116 23 0.0 0.0 0.00 0.00 0.00 55 1015.9
20260901154145 23 0.0 0.0 0.00 0.00 0.00 52 1015.8
20260901153214 26 0.0 0.0 0.00 0.00 0.00 51 1015.6
20260901152240 25 0.0 0.0 0.00 0.00 0.00 52 1015.7
20260901151308 26 0.0 0.0 0.00 0.00 0.00 51 1015.6
20260901150336 25 0.0 0.0 0.00 0.00 0.00 54 1015.6
20260901145402 25 0.0 0.0 0.00 0.00 0.00 52 1015.6
20260901144428 25 0.0 0.0 0.00 0.00 0.00 53 1015.6
20260901143455 23 0.0 0.0 0.00 0.00 0.00 56 1015.7
20260901142522 24 0.0 0.0 0.00 0.00 0.00 57 1015.6
20260901141550 23 0.0 0.0 0.00 0.00 0.00 60 1015.8
20260901140616 24 0.0 0.0 0.00 0.00 0.00 58 1015.8
20260901135642 23 0.0 0.0 0.00 0.00 0.00 59 1015.9
20260901134707 22 0.0 0.0 0.00 0.00 0.00 62 1016.0
20260901133736 22 0.0 0.0 0.00 0.00 0.00 67 1016.0
20260901132806 23 0.0 0.0 0.00 0.00 0.00 66 1015.9
20260901131833 22 0.0 0.0 0.00 0.00 0.00 69 1016.0
20260901130857 22 0.0 0.0 0.00 0.00 0.00 73 1016.1
20260901125924 21 0.0 0.0 0.00 0.00 0.00 77 1016.1
20260901124949 22 0.0 0.0 0.00 0.00 0.00 81 1016.0
20260901124014 20 0.0 0.0 0.00 0.00 0.00 83 1016.2
20260901123041 19 0.0 0.0 0.00 0.00 0.00 88 1016.3
20260901122108 18 0.0 0.0 0.00 0.00 0.00 88 1016.4
20260901121136 18 0.0 0.0 0.00 0.00 0.00 87 1016.3
20260901120207 21 0.0 0.0 0.00 0.00 0.00 71 1016.3
20260901115235 23 0.0 0.0 0.00 0.00 0.00 70 1016.0
20260901114259 21 0.0 0.0 0.00 0.00 0.00 75 1016.0
20260901113325 20 0.0 0.0 0.00 0.00 0.00 84 1016.0
20260901112353 19 0.0 0.0 0.00 0.00 0.00 87 1016.2
20260901111423 19 0.0 0.0 0.00 0.00 0.00 82 1016.0
20260901110453 22 0.0 0.0 0.00 0.00 0.00 63 1015.6
20260901105513 22 0.0 0.0 0.00 0.00 0.00 65 1015.6
20260901104525 22 0.0 0.0 0.00 0.00 0.00 69 1015.5
20260901103550 21 0.0 0.0 0.00 0.00 0.00 73 1015.5
20260901102617 20 0.0 0.0 0.00 0.00 0.00 79 1015.7
20260901101644 19 0.0 0.0 0.00 0.00 0.00 81 1015.5
20260901100712 19 0.0 0.0 0.00 0.00 0.00 79 1015.7
20260901095741 20 0.0 0.0 0.00 0.00 0.00 73 1015.7
20260901094809 21 0.0 0.0 0.00 0.00 0.00 71 1015.3
20260901093837 21 0.0 0.0 0.00 0.00 0.00 68 1015.1
20260901092904 21 0.0 0.0 0.00 0.00 0.00 69 1015.2
20260901091930 21 0.0 0.0 0.00 0.00 0.00 69 1015.1
20260901090956 20 0.0 0.0 0.00 0.00 0.00 73 1015.3
20260901090023 20 0.0 0.0 0.00 0.00 0.00 75 1015.2
20260901085048 19 0.0 0.0 0.00 0.00 0.00 78 1015.3
20260901084115 18 0.0 0.0 0.00 0.00 0.00 82 1015.3
20260901083142 18 0.0 0.0 0.00 0.00 0.00 84 1015.2
20260901082210 18 0.0 0.0 0.00 0.00 0.00 83 1015.2
20260901081238 18 0.0 0.0 0.00 0.00 0.00 80 1015.1
20260901080305 18 0.0 0.0 0.00 0.00 0.00 79 1015.0
20260901075332 18 0.0 0.0 0.00 0.00 0.00 79 1015.0
20260901074400 18 0.0 0.0 0.00 0.00 0.00 80 1014.9
20260901073427 18 0.0 0.0 0.00 0.00 0.00 81 1014.7
20260901072455 18 0.0 0.0 0.00 0.00 0.00 80 1014.6
20260901071522 18 0.0 0.0 0.00 0.00 0.00 81 1014.6
20260901070550 18 0.0 0.0 0.00 0.00 0.00 81 1014.4
20260901065617 18 0.0 0.0 0.00 0.00 0.00 80 1014.4
20260901064645 17 0.0 0.0 0.00 0.00 0.00 82 1014.3
20260901063711 17 0.0 0.0 0.00 0.00 0.00 82 1014.1
20260901062738 17 0.0 0.0 0.00 0.00 0.00 83 1014.0
20260901061806 17 0.0 0.0 0.00 0.00 0.00 84 1014.1